15-07-2023, 00:00:00,    183,    0.3,   13.4,   0.00,   0.00,  999.3,    0.5, -999.0
15-07-2023, 00:00:10,    182,    0.0,   13.3,   0.00,   0.00,  999.2,    0.4, -999.0
15-07-2023, 00:00:20,    182,    0.4,   13.3,   0.00,   0.00,  999.2,    0.4, -999.0
15-07-2023, 00:00:31,    214,    2.6,   13.4,   0.00,   0.00,  999.3,    0.3, -999.0
15-07-2023, 00:00:40,    199,    1.6,   13.4,   0.00,   0.00,  999.3,    0.4, -999.0
15-07-2023, 00:00:50,    162,    2.0,   13.4,   0.00,   0.00,  999.3,    0.2, -999.0
15-07-2023, 00:01:01,    155,    1.9,   13.4,   0.00,   0.00,  999.3,    0.3, -999.0
15-07-2023, 00:01:10,    154,    0.5,   13.4,   0.00,   0.00,  999.3,    0.5, -999.0
15-07-2023, 00:01:20,    218,    0.8,   13.3,   0.00,   0.00,  999.3,    0.3, -999.0
15-07-2023, 00:01:30,    218,    0.9,   13.4,   0.00,   0.00,  999.3,    0.4, -999.0
15-07-2023, 00:01:40,    218,    0.2,   13.3,   0.00,   0.00,  999.3,    0.3, -999.0
15-07-2023, 00:01:50,    217,    1.4,   13.3,   0.00,   0.00,  999.3,    0.3, -999.0
15-07-2023, 00:02:00,    184,    1.9,   13.4,   0.00,   0.00,  999.4,    0.3, -999.0
15-07-2023, 00:02:10,    162,    1.0,   13.4,   0.00,   0.00,  999.3,    0.5, -999.0
15-07-2023, 00:02:20,    221,    1.1,   13.3,   0.00,   0.00,  999.4,    0.4, -999.0
15-07-2023, 00:02:30,    198,    2.6,   13.4,   0.00,   0.00,  999.4,    0.5, -999.0
15-07-2023, 00:02:40,    215,    2.3,   13.4,   0.00,   0.00,  999.3,    0.4, -999.0
15-07-2023, 00:02:50,    202,    1.6,   13.3,   0.00,   0.00,  999.3,    0.5, -999.0
15-07-2023, 00:03:00,    150,    1.0,   13.4,   0.00,   0.00,  999.3,    0.4, -999.0
15-07-2023, 00:03:10,    149,    1.1,   13.5,   0.00,   0.00,  999.3,    0.5, -999.0
15-07-2023, 00:03:20,    149,    0.3,   13.4,   0.00,   0.00,  999.2,    0.5, -999.0
15-07-2023, 00:03:30,    182,    0.7,   13.4,   0.00,   0.00,  999.3,    0.3, -999.0
15-07-2023, 00:03:40,    184,    0.3,   13.4,   0.00,   0.00,  999.3,    0.3, -999.0
15-07-2023, 00:03:50,    184,    0.0,   13.4,   0.00,   0.00,  999.2,    0.3, -999.0
15-07-2023, 00:04:00,    184,    0.0,   13.3,   0.00,   0.00,  999.2,    0.5, -999.0
15-07-2023, 00:04:10,    184,    0.1,   13.3,   0.00,   0.00,  999.3,    0.2, -999.0
15-07-2023, 00:04:20,    184,    0.0,   13.3,   0.00,   0.00,  999.2,    0.4, -999.0
15-07-2023, 00:04:30,    209,    1.2,   13.4,   0.00,   0.00,  999.3,    0.5, -999.0
15-07-2023, 00:04:40,    196,    1.2,   13.4,   0.00,   0.00,  999.4,    0.2, -999.0
15-07-2023, 00:04:50,    196,    0.8,   13.4,   0.00,   0.00,  999.3,    0.4, -999.0
15-07-2023, 00:05:00,    200,    1.0,   13.4,   0.00,   0.00,  999.3,    0.5, -999.0
15-07-2023, 00:05:10,    161,    0.8,   13.4,   0.00,   0.00,  999.3,    0.3, -999.0
15-07-2023, 00:05:20,    161,    0.4,   13.3,   0.00,   0.00,  999.3,    0.4, -999.0
15-07-2023, 00:05:29,    161,    0.5,   13.3,   0.00,   0.00,  999.3,    0.4, -999.0
15-07-2023, 00:05:40,    236,    1.0,   13.4,   0.00,   0.00,  999.3,    0.5, -999.0
15-07-2023, 00:05:50,    222,    2.2,   13.4,   0.00,   0.00,  999.3,    0.4, -999.0
15-07-2023, 00:05:59,    219,    0.9,   13.3,   0.00,   0.00,  999.3,    0.5, -999.0
15-07-2023, 00:06:10,    218,    0.3,   13.3,   0.00,   0.00,  999.3,    0.6, -999.0
15-07-2023, 00:06:20,    219,    0.3,   13.3,   0.00,   0.00,  999.3,    0.6, -999.0
15-07-2023, 00:06:30,    218,    0.0,   13.2,   0.00,   0.00,  999.2,    0.5, -999.0
15-07-2023, 00:06:39,    218,    0.0,   13.2,   0.00,   0.00,  999.2,    0.8, -999.0
15-07-2023, 00:06:50,    212,    0.8,   13.3,   0.00,   0.00,  999.3,    0.1, -999.0
15-07-2023, 00:07:00,    211,    0.8,   13.3,   0.00,   0.00,  999.3,    0.1, -999.0
15-07-2023, 00:07:09,    206,    0.3,   13.2,   0.00,   0.00,  999.3,    0.3, -999.0
15-07-2023, 00:07:19,    199,    0.1,   13.3,   0.00,   0.00,  999.2,    0.6, -999.0
15-07-2023, 00:07:30,    172,    3.0,   13.4,   0.00,   0.00,  999.3,    0.4, -999.0
15-07-2023, 00:07:39,    160,    1.0,   13.3,   0.00,   0.00,  999.3,    0.0, -999.0
15-07-2023, 00:07:49,    222,    0.8,   13.3,   0.00,   0.00,  999.3,    0.2, -999.0
15-07-2023, 00:07:59,    179,    1.1,   13.3,   0.00,   0.00,  999.3,    0.6, -999.0
15-07-2023, 00:08:09,    179,    0.6,   13.3,   0.00,   0.00,  999.3,    0.5, -999.0
15-07-2023, 00:08:19,    190,    0.5,   13.3,   0.00,   0.00,  999.3,    0.3, -999.0
15-07-2023, 00:08:29,    190,    0.0,   13.2,   0.00,   0.00,  999.2,    0.4, -999.0
15-07-2023, 00:08:40,    200,    1.3,   13.3,   0.00,   0.00,  999.3,    0.7, -999.0
15-07-2023, 00:08:49,    198,    1.3,   13.3,   0.00,   0.00,  999.4,    0.4, -999.0
15-07-2023, 00:08:59,    198,    0.4,   13.3,   0.00,   0.00,  999.3,    0.6, -999.0
15-07-2023, 00:09:09,    187,    1.4,   13.3,   0.00,   0.00,  999.3,    0.4, -999.0
15-07-2023, 00:09:19,    188,    0.6,   13.3,   0.00,   0.00,  999.3,    0.4, -999.0
15-07-2023, 00:09:29,    188,    0.0,   13.2,   0.00,   0.00,  999.2,    0.4, -999.0
15-07-2023, 00:09:39,    187,    0.7,   13.3,   0.00,   0.00,  999.3,    0.3, -999.0
15-07-2023, 00:09:49,    187,    0.0,   13.2,   0.00,   0.00,  999.1,    0.3, -999.0
15-07-2023, 00:09:59,    189,    0.5,   13.2,   0.00,   0.00,  999.2,    0.5, -999.0
15-07-2023, 00:10:09,    227,    0.9,   13.3,   0.00,   0.00,  999.3,    0.5, -999.0
15-07-2023, 00:10:19,    214,    1.5,   13.3,   0.00,   0.00,  999.3,    0.4, -999.0
15-07-2023, 00:10:29,    213,    0.5,   13.3,   0.00,   0.00,  999.3,    0.5, -999.0
15-07-2023, 00:10:39,    213,    0.2,   13.3,   0.00,   0.00,  999.3,    0.5, -999.0
15-07-2023, 00:10:49,    212,    0.4,   13.3,   0.00,   0.00,  999.3,    0.4, -999.0
15-07-2023, 00:10:59,    212,    0.0,   13.3,   0.00,   0.00,  999.2,    0.3, -999.0
15-07-2023, 00:11:09,    212,    0.1,   13.3,   0.00,   0.00,  999.3,    0.4, -999.0
15-07-2023, 00:11:19,    143,    0.9,   13.3,   0.00,   0.00,  999.3,    0.8, -999.0
15-07-2023, 00:11:29,    174,    0.7,   13.3,   0.00,   0.00,  999.3,    0.3, -999.0
15-07-2023, 00:11:39,    186,    0.3,   13.3,   0.00,   0.00,  999.2,    0.3, -999.0
15-07-2023, 00:11:49,    185,    0.4,   13.3,   0.00,   0.00,  999.2,    0.5, -999.0
15-07-2023, 00:11:59,    186,    0.0,   13.2,   0.00,   0.00,  999.2,    0.3, -999.0
15-07-2023, 00:12:09,    193,    0.8,   13.3,   0.00,   0.00,  999.3,    0.7, -999.0
15-07-2023, 00:12:19,    192,    0.2,   13.2,   0.00,   0.00,  999.2,    0.6, -999.0
15-07-2023, 00:12:29,    192,    0.0,   13.2,   0.00,   0.00,  999.2,    0.2, -999.0
15-07-2023, 00:12:39,    193,    0.0,   13.2,   0.00,   0.00,  999.2,    0.4, -999.0
15-07-2023, 00:12:49,    193,    0.1,   13.2,   0.00,   0.00,  999.2,    0.3, -999.0
15-07-2023, 00:12:59,    193,    0.8,   13.3,   0.00,   0.00,  999.4,    0.3, -999.0
15-07-2023, 00:13:09,    184,    0.9,   13.3,   0.00,   0.00,  999.3,    0.7, -999.0
15-07-2023, 00:13:19,    184,    0.2,   13.3,   0.00,   0.00,  999.2,    0.5, -999.0
15-07-2023, 00:13:29,    185,    0.0,   13.2,   0.00,   0.00,  999.2,    0.3, -999.0
15-07-2023, 00:13:38,    184,    0.0,   13.2,   0.00,   0.00,  999.2,    0.4, -999.0
15-07-2023, 00:13:49,    184,    0.0,   13.2,   0.00,   0.00,  999.2,    0.5, -999.0
15-07-2023, 00:13:59,    184,    0.0,   13.2,   0.00,   0.00,  999.2,    0.3, -999.0
15-07-2023, 00:14:08,    184,    0.1,   13.2,   0.00,   0.00,  999.2,    0.5, -999.0
15-07-2023, 00:14:18,    184,    0.4,   13.3,   0.00,   0.00,  999.3,    0.4, -999.0
15-07-2023, 00:14:29,    182,    0.9,   13.3,   0.00,   0.00,  999.3,    0.4, -999.0
15-07-2023, 00:14:39,    201,    0.3,   13.3,   0.00,   0.00,  999.3,    0.6, -999.0
15-07-2023, 00:14:48,    200,    0.1,   13.2,   0.00,   0.00,  999.2,    0.4, -999.0
15-07-2023, 00:14:58,    176,    0.4,   13.2,   0.00,   0.00,  999.2,    0.6, -999.0
15-07-2023, 00:15:09,    175,    0.7,   13.3,   0.00,   0.00,  999.2,    0.4, -999.0
15-07-2023, 00:15:18,    175,    0.0,   13.2,   0.00,   0.00,  999.1,    0.3, -999.0
15-07-2023, 00:15:28,    175,    0.0,   13.2,   0.00,   0.00,  999.2,    0.3, -999.0
15-07-2023, 00:15:39,    175,    0.5,   13.3,   0.00,   0.00,  999.3,    0.2, -999.0
15-07-2023, 00:15:48,    175,    1.0,   13.3,   0.00,   0.00,  999.3,    0.3, -999.0
15-07-2023, 00:15:58,    175,    0.1,   13.3,   0.00,   0.00,  999.3,    0.4, -999.0
15-07-2023, 00:16:08,    175,    0.3,   13.3,   0.00,   0.00,  999.2,    0.5, -999.0
15-07-2023, 00:16:18,    175,    0.0,   13.2,   0.00,   0.00,  999.2,    0.6, -999.0
15-07-2023, 00:16:28,    174,    0.1,   13.2,   0.00,   0.00,  999.2,    0.5, -999.0
15-07-2023, 00:16:38,    175,    0.0,   13.1,   0.00,   0.00,  999.1,    0.3, -999.0
15-07-2023, 00:16:48,    151,    1.4,   13.3,   0.00,   0.00,  999.3,    0.4, -999.0
15-07-2023, 00:16:58,    182,    0.9,   13.3,   0.00,   0.00,  999.2,    0.5, -999.0
15-07-2023, 00:17:08,    192,    1.8,   13.2,   0.00,   0.00,  999.3,    0.5, -999.0
15-07-2023, 00:17:18,    225,    1.7,   13.3,   0.00,   0.00,  999.3,    0.7, -999.0
15-07-2023, 00:17:28,    223,    0.3,   13.2,   0.00,   0.00,  999.2,    0.3, -999.0
15-07-2023, 00:17:38,    221,    1.1,   13.3,   0.00,   0.00,  999.3,    0.5, -999.0
15-07-2023, 00:17:48,    220,    0.1,   13.2,   0.00,   0.00,  999.3,    0.3, -999.0
15-07-2023, 00:17:58,    220,    0.0,   13.1,   0.00,   0.00,  999.2,    0.3, -999.0
15-07-2023, 00:18:08,    152,    1.5,   13.2,   0.00,   0.00,  999.3,    0.4, -999.0
15-07-2023, 00:18:18,    152,    0.6,   13.2,   0.00,   0.00,  999.3,    0.4, -999.0
15-07-2023, 00:18:28,    152,    0.2,   13.2,   0.00,   0.00,  999.3,    0.2, -999.0
15-07-2023, 00:18:38,    153,    0.2,   13.1,   0.00,   0.00,  999.3,    0.2, -999.0
15-07-2023, 00:18:48,    152,    0.2,   13.2,   0.00,   0.00,  999.3,    0.7, -999.0
15-07-2023, 00:18:58,    153,    0.0,   13.2,   0.00,   0.00,  999.3,    0.3, -999.0
15-07-2023, 00:19:08,    194,    0.8,   13.2,   0.00,   0.00,  999.4,    0.5, -999.0
15-07-2023, 00:19:18,    194,    0.0,   13.2,   0.00,   0.00,  999.3,    0.2, -999.0
15-07-2023, 00:19:28,    193,    0.0,   13.2,   0.00,   0.00,  999.3,    0.4, -999.0
15-07-2023, 00:19:38,    191,    0.7,   13.2,   0.00,   0.00,  999.4,    0.4, -999.0
15-07-2023, 00:19:48,    191,    0.2,   13.2,   0.00,   0.00,  999.4,    0.7, -999.0
15-07-2023, 00:19:58,    218,    0.6,   13.2,   0.00,   0.00,  999.4,    0.4, -999.0
15-07-2023, 00:20:08,    217,    1.8,   13.3,   0.00,   0.00,  999.4,    0.3, -999.0
15-07-2023, 00:20:18,    214,    0.1,   13.2,   0.00,   0.00,  999.3,    0.0, -999.0
15-07-2023, 00:20:28,    214,    0.4,   13.2,   0.00,   0.00,  999.4,    0.5, -999.0
15-07-2023, 00:20:38,    214,    0.0,   13.2,   0.00,   0.00,  999.3,    0.3, -999.0
15-07-2023, 00:20:48,    214,    0.0,   13.1,   0.00,   0.00,  999.3,    0.1, -999.0
15-07-2023, 00:20:58,    214,    0.2,   13.1,   0.00,   0.00,  999.4,    0.5, -999.0
15-07-2023, 00:21:07,    213,    0.1,   13.2,   0.00,   0.00,  999.3,    0.2, -999.0
15-07-2023, 00:21:18,    212,    0.0,   13.2,   0.00,   0.00,  999.4,    0.4, -999.0
15-07-2023, 00:21:28,    215,    1.5,   13.2,   0.00,   0.00,  999.4,    0.5, -999.0
15-07-2023, 00:21:38,    212,    1.7,   13.2,   0.00,   0.00,  999.5,    0.5, -999.0
15-07-2023, 00:21:47,    213,    0.3,   13.1,   0.00,   0.00,  999.4,    0.5, -999.0
15-07-2023, 00:21:58,    220,    0.3,   13.2,   0.00,   0.00,  999.4,    0.5, -999.0
15-07-2023, 00:22:08,    218,    0.3,   13.2,   0.00,   0.00,  999.4,    0.3, -999.0
15-07-2023, 00:22:17,    218,    0.0,   13.1,   0.00,   0.00,  999.3,    0.5, -999.0
15-07-2023, 00:22:27,    184,    0.2,   13.2,   0.00,   0.00,  999.4,    0.5, -999.0
15-07-2023, 00:22:38,    185,    0.2,   13.1,   0.00,   0.00,  999.3,    0.4, -999.0
15-07-2023, 00:22:47,    184,    0.5,   13.1,   0.00,   0.00,  999.4,    0.4, -999.0
15-07-2023, 00:22:57,    222,    1.0,   13.2,   0.00,   0.00,  999.4,    0.3, -999.0
15-07-2023, 00:23:07,    186,    1.7,   13.2,   0.00,   0.00,  999.5,    0.6, -999.0
15-07-2023, 00:23:18,    185,    0.7,   13.2,   0.00,   0.00,  999.4,    0.4, -999.0
15-07-2023, 00:23:27,    185,    0.6,   13.2,   0.00,   0.00,  999.4,    0.4, -999.0
15-07-2023, 00:23:37,    186,    0.0,   13.1,   0.00,   0.00,  999.3,    0.4, -999.0
15-07-2023, 00:23:47,    212,    1.2,   13.1,   0.00,   0.00,  999.4,    0.6, -999.0
15-07-2023, 00:23:57,    211,    0.6,   13.1,   0.00,   0.00,  999.4,    0.7, -999.0
15-07-2023, 00:24:07,    269,    0.2,   13.1,   0.00,   0.00,  999.4,    0.4, -999.0
15-07-2023, 00:24:17,    268,    0.0,   13.1,   0.00,   0.00,  999.3,    0.6, -999.0
15-07-2023, 00:24:27,    174,    1.8,   13.2,   0.00,   0.00,  999.4,    0.3, -999.0
15-07-2023, 00:24:37,    164,    1.3,   13.1,   0.00,   0.00,  999.5,    0.4, -999.0
15-07-2023, 00:24:47,    186,    2.3,   13.2,   0.00,   0.00,  999.5,    0.4, -999.0
15-07-2023, 00:24:57,    217,    2.0,   13.2,   0.00,   0.00,  999.5,    0.6, -999.0
15-07-2023, 00:25:07,    216,    0.5,   13.1,   0.00,   0.00,  999.4,    0.4, -999.0
15-07-2023, 00:25:17,    184,    0.8,   13.1,   0.00,   0.00,  999.4,    0.5, -999.0
15-07-2023, 00:25:27,    182,    0.8,   13.1,   0.00,   0.00,  999.5,    0.3, -999.0
15-07-2023, 00:25:37,    206,    1.0,   13.1,   0.00,   0.00,  999.5,    0.5, -999.0
15-07-2023, 00:25:47,    206,    0.7,   13.2,   0.00,   0.00,  999.5,    0.5, -999.0
15-07-2023, 00:25:57,    206,    0.3,   13.1,   0.00,   0.00,  999.4,    0.5, -999.0
15-07-2023, 00:26:07,    205,    0.0,   13.1,   0.00,   0.00,  999.3,    0.5, -999.0
15-07-2023, 00:26:17,    203,    0.1,   13.1,   0.00,   0.00,  999.4,    0.7, -999.0
15-07-2023, 00:26:27,    203,    0.0,   13.1,   0.00,   0.00,  999.3,    0.0, -999.0
15-07-2023, 00:26:37,    206,    0.8,   13.1,   0.00,   0.00,  999.4,    0.1, -999.0
15-07-2023, 00:26:47,    205,    0.2,   13.1,   0.00,   0.00,  999.4,    0.3, -999.0
15-07-2023, 00:26:57,    206,    0.1,   13.1,   0.00,   0.00,  999.4,    0.3, -999.0
15-07-2023, 00:27:07,    218,    1.1,   13.1,   0.00,   0.00,  999.5,    0.4, -999.0
15-07-2023, 00:27:17,    210,    2.9,   13.2,   0.00,   0.00,  999.5,    0.5, -999.0
15-07-2023, 00:27:27,    221,    1.0,   13.1,   0.00,   0.00,  999.5,    0.4, -999.0
15-07-2023, 00:27:37,    212,    0.6,   13.1,   0.00,   0.00,  999.5,    0.4, -999.0
15-07-2023, 00:27:47,    212,    0.2,   13.1,   0.00,   0.00,  999.4,    0.4, -999.0
15-07-2023, 00:27:57,    211,    0.6,   13.1,   0.00,   0.00,  999.5,    0.5, -999.0
15-07-2023, 00:28:07,    226,    0.9,   13.2,   0.00,   0.00,  999.5,    0.3, -999.0
15-07-2023, 00:28:17,    207,    1.1,   13.1,   0.00,   0.00,  999.5,    0.4, -999.0
15-07-2023, 00:28:27,    228,    1.5,   13.2,   0.00,   0.00,  999.5,    0.4, -999.0
15-07-2023, 00:28:37,    222,    0.8,   13.1,   0.00,   0.00,  999.5,    0.5, -999.0
15-07-2023, 00:28:46,    223,    0.5,   13.1,   0.00,   0.00,  999.5,    0.2, -999.0
15-07-2023, 00:28:57,    223,    0.0,   13.0,   0.00,   0.00,  999.4,    0.5, -999.0
15-07-2023, 00:29:07,    210,    0.9,   13.1,   0.00,   0.00,  999.5,    0.3, -999.0
15-07-2023, 00:29:16,    209,    0.0,   13.0,   0.00,   0.00,  999.4,    0.2, -999.0
15-07-2023, 00:29:26,    209,    0.5,   13.0,   0.00,   0.00,  999.5,    0.5, -999.0
15-07-2023, 00:29:37,    209,    2.1,   13.0,   0.00,   0.00,  999.6,    0.6, -999.0
15-07-2023, 00:29:46,    209,    2.2,   13.1,   0.00,   0.00,  999.5,    0.3, -999.0
15-07-2023, 00:29:56,    210,    1.9,   13.2,   0.00,   0.00,  999.5,    0.8, -999.0
15-07-2023, 00:30:07,    197,    2.7,   13.0,   0.00,   0.00,  999.5,    0.3, -999.0
15-07-2023, 00:30:17,    196,    1.9,   13.1,   0.00,   0.00,  999.5,    0.5, -999.0
15-07-2023, 00:30:26,    204,    2.0,   13.0,   0.00,   0.00,  999.6,    0.4, -999.0
15-07-2023, 00:30:36,    192,    0.4,   13.0,   0.00,   0.00,  999.5,    0.6, -999.0
15-07-2023, 00:30:47,    193,    0.0,   12.9,   0.00,   0.00,  999.4,    0.5, -999.0
15-07-2023, 00:30:56,    192,    0.2,   13.0,   0.00,   0.00,  999.5,    0.4, -999.0
15-07-2023, 00:31:06,    230,    0.8,   13.0,   0.00,   0.00,  999.5,    0.4, -999.0
15-07-2023, 00:31:16,    185,    0.1,   13.1,   0.00,   0.00,  999.4,    0.4, -999.0
15-07-2023, 00:31:26,    238,    0.0,   13.0,   0.00,   0.00,  999.4,    0.3, -999.0
15-07-2023, 00:31:36,    236,    1.0,   13.0,   0.00,   0.00,  999.5,    0.4, -999.0
15-07-2023, 00:31:46,    207,    1.5,   13.0,   0.00,   0.00,  999.5,    0.5, -999.0
15-07-2023, 00:31:56,    202,    2.5,   13.1,   0.00,   0.00,  999.5,    0.3, -999.0
15-07-2023, 00:32:06,    202,    0.5,   13.0,   0.00,   0.00,  999.5,    0.5, -999.0
15-07-2023, 00:32:16,    202,    0.3,   13.0,   0.00,   0.00,  999.4,    0.5, -999.0
15-07-2023, 00:32:26,    219,    1.4,   13.1,   0.00,   0.00,  999.4,    0.4, -999.0
15-07-2023, 00:32:36,    176,    4.0,   13.0,   0.00,   0.00,  999.5,    0.4, -999.0
15-07-2023, 00:32:46,    209,    2.7,   13.0,   0.00,   0.00,  999.5,    0.5, -999.0
15-07-2023, 00:32:56,    211,    1.7,   13.0,   0.00,   0.00,  999.5,    0.3, -999.0
15-07-2023, 00:33:06,    210,    0.3,   13.0,   0.00,   0.00,  999.5,    0.3, -999.0
15-07-2023, 00:33:16,    211,    0.0,   12.8,   0.00,   0.00,  999.3,    0.4, -999.0
15-07-2023, 00:33:26,    212,    0.0,   12.9,   0.00,   0.00,  999.4,    0.4, -999.0
15-07-2023, 00:33:36,    211,    0.0,   13.0,   0.00,   0.00,  999.4,    0.3, -999.0
15-07-2023, 00:33:46,    225,    0.4,   13.0,   0.00,   0.00,  999.4,    0.4, -999.0
15-07-2023, 00:33:56,    217,    1.6,   13.1,   0.00,   0.00,  999.5,    0.3, -999.0
15-07-2023, 00:34:06,    212,    0.8,   13.1,   0.00,   0.00,  999.4,    0.4, -999.0
15-07-2023, 00:34:16,    212,    0.1,   12.9,   0.00,   0.00,  999.4,    0.4, -999.0
15-07-2023, 00:34:26,    211,    0.1,   13.0,   0.00,   0.00,  999.4,    0.4, -999.0
15-07-2023, 00:34:36,    211,    0.4,   13.0,   0.00,   0.00,  999.4,    0.5, -999.0
15-07-2023, 00:34:46,    211,    0.0,   13.0,   0.00,   0.00,  999.3,    0.3, -999.0
15-07-2023, 00:34:56,    212,    0.2,   13.0,   0.00,   0.00,  999.3,    0.3, -999.0
15-07-2023, 00:35:06,    212,    0.3,   13.0,   0.00,   0.00,  999.4,    0.5, -999.0
15-07-2023, 00:35:16,    161,    0.4,   13.0,   0.00,   0.00,  999.4,    0.4, -999.0
15-07-2023, 00:35:26,    236,    0.6,   13.0,   0.00,   0.00,  999.4,    0.4, -999.0
15-07-2023, 00:35:36,    158,    0.9,   13.0,   0.00,   0.00,  999.4,    0.4, -999.0
15-07-2023, 00:35:46,    155,    0.7,   13.0,   0.00,   0.00,  999.4,    0.4, -999.0
15-07-2023, 00:35:56,    155,    0.0,   12.8,   0.00,   0.00,  999.3,    0.6, -999.0
15-07-2023, 00:36:06,    155,    0.2,   13.0,   0.00,   0.00,  999.3,    0.3, -999.0
15-07-2023, 00:36:15,    154,    0.0,   12.9,   0.00,   0.00,  999.3,    0.3, -999.0
15-07-2023, 00:36:26,    171,    0.0,   12.9,   0.00,   0.00,  999.3,    0.3, -999.0
15-07-2023, 00:36:36,    180,    2.1,   13.0,   0.00,   0.00,  999.4,    0.6, -999.0
15-07-2023, 00:36:45,    226,    3.2,   13.0,   0.00,   0.00,  999.5,    0.6, -999.0
15-07-2023, 00:36:55,    202,    1.8,   12.9,   0.00,   0.00,  999.4,    0.4, -999.0
15-07-2023, 00:37:06,    222,    1.3,   12.9,   0.00,   0.00,  999.5,    0.5, -999.0
15-07-2023, 00:37:16,    197,    2.7,   13.0,   0.00,   0.00,  999.4,    0.3, -999.0
15-07-2023, 00:37:25,    195,    0.8,   13.0,   0.00,   0.00,  999.4,    0.2, -999.0
15-07-2023, 00:37:35,    196,    1.3,   12.9,   0.00,   0.00,  999.5,    0.3, -999.0
15-07-2023, 00:37:46,    193,    1.1,   12.9,   0.00,   0.00,  999.4,    0.5, -999.0
15-07-2023, 00:37:55,    141,    0.9,   13.0,   0.00,   0.00,  999.4,    0.5, -999.0
15-07-2023, 00:38:05,    141,    0.5,   12.9,   0.00,   0.00,  999.4,    0.3, -999.0
15-07-2023, 00:38:16,    141,    0.0,   12.9,   0.00,   0.00,  999.3,    0.4, -999.0
15-07-2023, 00:38:25,    222,    0.4,   12.8,   0.00,   0.00,  999.4,    0.7, -999.0
15-07-2023, 00:38:35,    219,    0.9,   12.9,   0.00,   0.00,  999.4,    0.4, -999.0
15-07-2023, 00:38:45,    163,    0.8,   13.0,   0.00,   0.00,  999.4,    0.4, -999.0
15-07-2023, 00:38:55,    164,    0.0,   12.8,   0.00,   0.00,  999.3,    0.4, -999.0
15-07-2023, 00:39:05,    164,    0.4,   12.8,   0.00,   0.00,  999.4,    0.4, -999.0
15-07-2023, 00:39:15,    213,    0.9,   12.9,   0.00,   0.00,  999.4,    0.5, -999.0
15-07-2023, 00:39:25,    212,    0.9,   12.9,   0.00,   0.00,  999.4,    0.4, -999.0
15-07-2023, 00:39:35,    197,    0.4,   12.8,   0.00,   0.00,  999.4,    0.4, -999.0
15-07-2023, 00:39:45,    150,    1.8,   12.8,   0.00,   0.00,  999.4,    0.4, -999.0
15-07-2023, 00:39:55,    150,    0.5,   12.8,   0.00,   0.00,  999.4,    0.5, -999.0
15-07-2023, 00:40:05,    217,    1.1,   12.8,   0.00,   0.00,  999.4,    0.4, -999.0
15-07-2023, 00:40:15,    212,    1.3,   12.9,   0.00,   0.00,  999.4,    0.3, -999.0
15-07-2023, 00:40:25,    194,    1.0,   12.8,   0.00,   0.00,  999.4,    0.4, -999.0
15-07-2023, 00:40:35,    199,    1.0,   12.8,   0.00,   0.00,  999.4,    0.4, -999.0
15-07-2023, 00:40:45,    137,    2.0,   12.9,   0.00,   0.00,  999.4,    0.7, -999.0
15-07-2023, 00:40:55,    137,    0.5,   12.8,   0.00,   0.00,  999.4,    0.2, -999.0
15-07-2023, 00:41:05,    138,    0.7,   12.8,   0.00,   0.00,  999.4,    0.5, -999.0
15-07-2023, 00:41:15,    231,    0.2,   12.8,   0.00,   0.00,  999.3,    0.3, -999.0
15-07-2023, 00:41:25,    230,    0.0,   12.8,   0.00,   0.00,  999.3,    0.4, -999.0
15-07-2023, 00:41:35,    199,    1.0,   12.8,   0.00,   0.00,  999.4,    0.6, -999.0
15-07-2023, 00:41:45,    222,    1.2,   12.8,   0.00,   0.00,  999.4,    0.3, -999.0
15-07-2023, 00:41:55,    216,    1.0,   12.8,   0.00,   0.00,  999.4,    0.5, -999.0
15-07-2023, 00:42:05,    216,    0.5,   12.8,   0.00,   0.00,  999.4,    0.3, -999.0
15-07-2023, 00:42:15,    215,    0.5,   12.8,   0.00,   0.00,  999.4,    0.4, -999.0
15-07-2023, 00:42:25,    215,    0.0,   12.6,   0.00,   0.00,  999.3,    0.8, -999.0
15-07-2023, 00:42:35,    215,    0.0,   12.7,   0.00,   0.00,  999.3,    0.3, -999.0
15-07-2023, 00:42:45,    201,    0.8,   12.8,   0.00,   0.00,  999.3,    0.4, -999.0
15-07-2023, 00:42:55,    171,    2.6,   12.7,   0.00,   0.00,  999.4,    0.4, -999.0
15-07-2023, 00:43:05,    167,    1.6,   12.8,   0.00,   0.00,  999.4,    0.4, -999.0
15-07-2023, 00:43:14,    191,    2.6,   12.7,   0.00,   0.00,  999.4,    0.3, -999.0
15-07-2023, 00:43:25,    178,    1.3,   12.8,   0.00,   0.00,  999.4,    0.5, -999.0
15-07-2023, 00:43:35,    209,    1.2,   12.8,   0.00,   0.00,  999.4,    0.4, -999.0
15-07-2023, 00:43:45,    176,    0.5,   12.8,   0.00,   0.00,  999.4,    0.5, -999.0
15-07-2023, 00:43:54,    175,    1.4,   12.8,   0.00,   0.00,  999.4,    0.4, -999.0
15-07-2023, 00:44:05,    254,    0.5,   12.8,   0.00,   0.00,  999.3,    0.7, -999.0
15-07-2023, 00:44:15,    255,    0.1,   12.7,   0.00,   0.00,  999.3,    0.5, -999.0
15-07-2023, 00:44:24,    253,    0.0,   12.8,   0.00,   0.00,  999.2,    0.5, -999.0
15-07-2023, 00:44:35,    254,    0.0,   12.7,   0.00,   0.00,  999.2,    0.8, -999.0
15-07-2023, 00:44:45,    253,    0.0,   12.7,   0.00,   0.00,  999.2,    0.4, -999.0
15-07-2023, 00:44:54,    253,    0.0,   12.7,   0.00,   0.00,  999.2,    0.4, -999.0
15-07-2023, 00:45:04,    253,    0.0,   12.6,   0.00,   0.00,  999.2,    0.5, -999.0
15-07-2023, 00:45:15,    252,    0.0,   12.8,   0.00,   0.00,  999.3,    0.4, -999.0
15-07-2023, 00:45:24,    197,    1.0,   12.7,   0.00,   0.00,  999.3,    0.5, -999.0
15-07-2023, 00:45:34,    196,    0.3,   12.7,   0.00,   0.00,  999.2,    0.4, -999.0
15-07-2023, 00:45:44,    196,    0.0,   12.7,   0.00,   0.00,  999.2,    0.3, -999.0
15-07-2023, 00:45:55,    192,    1.2,   12.8,   0.00,   0.00,  999.3,    0.7, -999.0
15-07-2023, 00:46:04,    209,    0.5,   12.8,   0.00,   0.00,  999.3,    0.2, -999.0
15-07-2023, 00:46:14,    184,    0.6,   12.7,   0.00,   0.00,  999.3,    0.4, -999.0
15-07-2023, 00:46:24,    173,    1.7,   12.7,   0.00,   0.00,  999.3,    0.5, -999.0
15-07-2023, 00:46:34,    187,    1.1,   12.7,   0.00,   0.00,  999.4,    0.4, -999.0
15-07-2023, 00:46:44,    178,    0.8,   12.8,   0.00,   0.00,  999.4,    0.5, -999.0